Tracking 30115 objects as of 9-Feb-2025
HD Live streaming from Space Station
objects crossing your sky now

DELTA 1 DEB

Track DELTA 1 DEB now!
10-day predictions


NORAD ID: 2707
Int'l Code: 1967-006D
Perigee: 1,236.4 km
Apogee: 1,465.8 km
Inclination: 101.8 °
Period: 112.6 minutes
Semi major axis: 7722 km
RCS: 0.0659 m2 (small)
Launch date: January 26, 1967
Source: United States (US)
Launch site: AIR FORCE WESTERN TEST RANGE (AFWTR)

Note: This is SATELLITE DEBRIS
Your satellite tracking list
Your tracking list is empty




NASA's NSSDC Master Catalog

Two Line Element Set (TLE):
1 02707U 67006D   25037.73666169 -.00000032  00000-0  75062-4 0  9996
2 02707 101.8263 339.3918 0148537 284.7994 151.5023 12.79375494708997
Source of the keplerian elements: AFSPC